NOAA 16 DEB

Satellite information

Favourite Embed

Satellite Type and Status

DEBRISIN ORBIT

Key statistics

Satellite NOAA 16 DEB at a glance.

Uptime

9055

Days in orbit

Revolutions

≈ 14.3

Per day

Orbit

SSO

Sun Synchronous Orbit

Inclination

98.8

Latest

Satellite identification and parameters

Extended collection of information and parameters for NOAA 16 DEB.

Object identification

Identified? True

Debris? True

Object name: NOAA 16 DEB

International designator: 2000-055AG

Object number (NORAD): 41073

Object ID (CCSDS): 41073

Country: UNITED STATES OF AMERICA (US)

Current information (Y/N): Y

RCS size: SMALL

Orbital parameters

Period: 100.693 minutes

Inclination: 98.7767 deg

SMA: 7169.588 km

Apoapsis: 806.509 km

Periapsis: 776.398 km

RAAN: 291.6379 deg

Eccentricy: 0.0020999

Argument of periapsis: 112.201 deg

Mean anomaly: 248.1402 deg

Mean motion: 14.30083638 rev/day

Mean motion (dot): 0.00002392 rev/day2

B* drag term: 0.0009409 1/REarth

Two-line elements (TLE)

Creation date: July 6, 2025, 6:05 p.m.

Reference frame: TEME

Reference center: EARTH

Epoch: July 6, 2025, 5:33 a.m. UTC

TLE line 0: 0 NOAA 16 DEB

TLE line 1: 1 41073U 00055AG 25187.23128981 .00002392 00000-0 94090-3 0 9993

TLE line 2: 2 41073 98.7767 291.6379 0020999 112.2010 248.1402 14.30083638497887

Live tracking on map

Real-time ground track for satellite NOAA 16 DEB.

In-orbit conjunctions

A list of the most updated potential collisions computed for object NOAA 16 DEB.

Target Orbit TCA Probability of collision Miss distance Type
CZ-6A DEB LEO 2025-02-05 13:18:54 0.0001021734 528.0 (m) DEBRIS
CZ-6A DEB LEO 2024-12-21 07:19:20 0.0001346327 727.0 (m) DEBRIS
NOAA 17 DEB SSO 2024-06-14 03:54:04 0.0003683492 55.0 (m) DEBRIS

Associated space launch

The NOAA K, L and M POES satellites begin the fifth generation of improved environmental monitoring in support of NOAA missions. The instrument payload has significant improvements and additions/deletions. The instrument changes have effected the spacecraft subsystems and data formats.

NOAA 16 DEB was lifted into orbit during the mission ‘Titan II SLV | NOAA 16’, on board a Titan II SLV space rocket.

The launch took place on Sept. 21, 2000, 10:22 a.m. from Space Launch Complex 4W.

For more information about the launch, click the button.

Launch to space Titan II SLV | NOAA 16
Titan II SLV | NOAA 16

Agency: N/A

Status: Launch Successful

Launch date: Sept. 21, 2000, 10:22 a.m. UTC

Rocket: Titan II SLV

Launch pad: Space Launch Complex 4W

Location: Vandenberg SFB, CA, USA

...

Latest news about this satellite

There are no fresh news available about this satellite. Check back as we update our databases every day.


Newsletter sign-up

Weekly statistics, charts and insights to help you stay on top of the space industry.